Location: Kott?ru
(16.6209°N, 80.6208°E)
Time: 00:55:39
(UTC+00:00)

Cosmos 1437 Rocket - Pass Details

Date: 18 September 2020
Orbit: 506 x 562 km, 81.2° (Epoch: 26 October)

Event Time Altitude Azimuth Distance (km) Brightness Sun altitude
Rises 23:11:56 0° 170° (S) 2,598 6.3 -18.6°
Reaches altitude 10° 23:14:10 10° 161° (SSE) 1,712 5.5 -18.0°
Maximum altitude 23:17:37 36° 94° (E) 814 4.3 -17.2°
Drops below altitude 10° 23:21:05 10° 27° (NNE) 1,715 5.8 -16.4°
Sets 23:23:19 0° 18° (NNE) 2,604 6.6 -15.9°
